,,PressureMeas_1m,,PRMeasQMR101_1,,RHStat155_1m_1,,SRMeasQMS101R_1m,,TAStat155_1m_1,,GenWind_1,,GenWind_1,
2018-09-05, 00:00:07,VALID,920.252,VALID,0.0,VALID,95.459,VALID,-0.003,VALID,18.867,INVALID,360.0,VALID,0.0,
2018-09-05, 00:01:07,VALID,920.224,VALID,0.0,VALID,95.37,VALID,0.008,VALID,18.835,INVALID,360.0,VALID,0.0,
2018-09-05, 00:02:07,VALID,920.195,VALID,0.0,VALID,95.199,VALID,-0.006,VALID,18.773,INVALID,360.0,VALID,0.0,
2018-09-05, 00:03:07,VALID,920.182,VALID,0.0,VALID,95.035,VALID,0.007,VALID,18.686,INVALID,360.0,VALID,0.0,
2018-09-05, 00:04:07,VALID,920.167,VALID,0.0,VALID,95.215,VALID,-0.005,VALID,18.609,INVALID,360.0,VALID,0.0,
2018-09-05, 00:05:07,VALID,920.133,VALID,0.0,VALID,95.846,VALID,0.0,VALID,18.608,INVALID,360.0,VALID,0.0,
2018-09-05, 00:06:07,VALID,920.111,VALID,0.0,VALID,96.661,VALID,-0.003,VALID,18.691,INVALID,360.0,VALID,0.0,
2018-09-05, 00:07:07,VALID,920.086,VALID,0.0,VALID,96.592,VALID,0.004,VALID,18.705,INVALID,360.0,VALID,0.0,
2018-09-05, 00:08:07,VALID,920.072,VALID,0.0,VALID,96.651,VALID,-0.001,VALID,18.714,INVALID,360.0,VALID,0.0,
2018-09-05, 00:09:07,VALID,920.055,VALID,0.0,VALID,96.412,VALID,-0.013,VALID,18.694,INVALID,360.0,VALID,0.0,
2018-09-05, 00:10:07,VALID,920.024,VALID,0.0,VALID,96.225,VALID,-0.015,VALID,18.679,INVALID,360.0,VALID,0.0,
2018-09-05, 00:11:07,VALID,920.026,VALID,0.0,VALID,96.063,VALID,-0.009,VALID,18.647,INVALID,360.0,VALID,0.0,
2018-09-05, 00:12:07,VALID,919.996,VALID,0.0,VALID,95.829,VALID,-0.031,VALID,18.593,INVALID,360.0,VALID,0.0,
2018-09-05, 00:13:07,VALID,920.006,VALID,0.0,VALID,96.014,VALID,-0.004,VALID,18.592,INVALID,360.0,VALID,0.0,
2018-09-05, 00:14:07,VALID,919.991,VALID,0.0,VALID,96.194,VALID,-0.019,VALID,18.64,INVALID,360.0,VALID,0.0,
2018-09-05, 00:15:07,VALID,919.974,VALID,0.0,VALID,95.708,VALID,-0.014,VALID,18.598,INVALID,360.0,VALID,0.0,
2018-09-05, 00:16:07,VALID,919.953,VALID,0.0,VALID,95.989,VALID,-0.011,VALID,18.616,INVALID,360.0,VALID,0.0,
2018-09-05, 00:17:07,VALID,919.95,VALID,0.0,VALID,96.052,VALID,-0.025,VALID,18.614,INVALID,360.0,VALID,0.0,
2018-09-05, 00:18:07,VALID,919.931,VALID,0.0,VALID,96.234,VALID,-0.011,VALID,18.675,INVALID,360.0,VALID,0.0,
2018-09-05, 00:19:07,VALID,919.931,VALID,0.0,VALID,95.869,VALID,-0.023,VALID,18.722,INVALID,360.0,VALID,0.0,
2018-09-05, 00:20:07,VALID,919.927,VALID,0.0,VALID,95.62,VALID,-0.022,VALID,18.761,INVALID,360.0,VALID,0.0,
2018-09-05, 00:21:07,VALID,919.918,VALID,0.0,VALID,95.252,VALID,-0.022,VALID,18.759,INVALID,360.0,VALID,0.0,
2018-09-05, 00:22:07,VALID,919.912,VALID,0.0,VALID,95.18,VALID,0.001,VALID,18.75,INVALID,360.0,VALID,0.0,
2018-09-05, 00:23:07,VALID,919.885,VALID,0.0,VALID,95.249,VALID,0.011,VALID,18.783,INVALID,360.0,VALID,0.0,
2018-09-05, 00:24:07,VALID,919.866,VALID,0.0,VALID,94.902,VALID,0.013,VALID,18.81,INVALID,360.0,VALID,0.0,
2018-09-05, 00:25:07,VALID,919.878,VALID,0.0,VALID,94.47,VALID,0.007,VALID,18.797,INVALID,360.0,VALID,0.0,
2018-09-05, 00:26:07,VALID,919.895,VALID,0.0,VALID,94.418,VALID,0.012,VALID,18.765,INVALID,360.0,VALID,0.0,
2018-09-05, 00:27:07,VALID,919.892,VALID,0.0,VALID,94.57,VALID,-0.006,VALID,18.746,INVALID,360.0,VALID,0.0,
2018-09-05, 00:28:07,VALID,919.899,VALID,0.0,VALID,94.754,VALID,0.003,VALID,18.738,INVALID,360.0,VALID,0.0,
2018-09-05, 00:29:07,VALID,919.868,VALID,0.0,VALID,94.931,VALID,0.001,VALID,18.737,INVALID,360.0,VALID,0.0,
2018-09-05, 00:30:07,VALID,919.851,VALID,0.0,VALID,94.688,VALID,0.016,VALID,18.724,INVALID,360.0,VALID,0.0,
2018-09-05, 00:31:07,VALID,919.827,VALID,0.0,VALID,94.854,VALID,-0.0,VALID,18.715,INVALID,360.0,VALID,0.0,
2018-09-05, 00:32:07,VALID,919.819,VALID,0.0,VALID,94.897,VALID,0.01,VALID,18.705,INVALID,360.0,VALID,0.0,
2018-09-05, 00:33:06,VALID,919.826,VALID,0.0,VALID,95.066,VALID,0.034,VALID,18.695,INVALID,360.0,VALID,0.0,
2018-09-05, 00:34:06,VALID,919.808,VALID,0.0,VALID,94.821,VALID,0.017,VALID,18.64,INVALID,360.0,VALID,0.0,
2018-09-05, 00:35:06,VALID,919.808,VALID,0.0,VALID,94.698,VALID,0.025,VALID,18.581,INVALID,360.0,VALID,0.0,
2018-09-05, 00:36:06,VALID,919.802,VALID,0.0,VALID,95.036,VALID,0.008,VALID,18.562,INVALID,360.0,VALID,0.0,
2018-09-05, 00:37:06,VALID,919.786,VALID,0.0,VALID,95.291,VALID,0.006,VALID,18.561,INVALID,360.0,VALID,0.0,
2018-09-05, 00:38:06,VALID,919.756,VALID,0.0,VALID,95.35,VALID,0.006,VALID,18.544,INVALID,360.0,VALID,0.0,
2018-09-05, 00:39:06,VALID,919.756,VALID,0.0,VALID,94.408,VALID,0.012,VALID,18.42,INVALID,360.0,VALID,0.0,
2018-09-05, 00:40:06,VALID,919.742,VALID,0.0,VALID,94.056,VALID,0.015,VALID,18.33,INVALID,360.0,VALID,0.0,
2018-09-05, 00:41:06,VALID,919.728,VALID,0.0,VALID,95.219,VALID,-0.007,VALID,18.37,INVALID,360.0,VALID,0.0,
2018-09-05, 00:42:06,VALID,919.692,VALID,0.0,VALID,96.101,VALID,0.01,VALID,18.455,INVALID,360.0,VALID,0.0,
2018-09-05, 00:43:06,VALID,919.683,VALID,0.0,VALID,96.034,VALID,-0.004,VALID,18.447,INVALID,360.0,VALID,0.0,
2018-09-05, 00:44:06,VALID,919.644,VALID,0.0,VALID,94.144,VALID,0.015,VALID,18.257,INVALID,360.0,VALID,0.0,
2018-09-05, 00:45:06,VALID,919.613,VALID,0.0,VALID,94.842,VALID,0.003,VALID,18.185,INVALID,360.0,VALID,0.0,
2018-09-05, 00:46:06,VALID,919.573,VALID,0.0,VALID,95.506,VALID,-0.008,VALID,18.141,INVALID,360.0,VALID,0.0,
2018-09-05, 00:47:06,VALID,919.535,VALID,0.0,VALID,95.941,VALID,0.014,VALID,18.121,INVALID,360.0,VALID,0.0,
2018-09-05, 00:48:06,VALID,919.494,VALID,0.0,VALID,96.325,VALID,0.006,VALID,18.124,INVALID,360.0,VALID,0.0,
2018-09-05, 00:49:06,VALID,919.461,VALID,0.0,VALID,96.496,VALID,0.003,VALID,18.117,INVALID,360.0,VALID,0.0,
2018-09-05, 00:50:06,VALID,919.441,VALID,0.0,VALID,96.582,VALID,0.011,VALID,18.11,INVALID,360.0,VALID,0.0,
2018-09-05, 00:51:06,VALID,919.43,VALID,0.0,VALID,96.67,VALID,0.02,VALID,18.11,INVALID,360.0,VALID,0.0,
2018-09-05, 00:52:06,VALID,919.422,VALID,0.0,VALID,96.904,VALID,-0.006,VALID,18.143,INVALID,360.0,VALID,0.0,
2018-09-05, 00:53:06,VALID,919.387,VALID,0.0,VALID,96.934,VALID,-0.02,VALID,18.122,INVALID,360.0,VALID,0.0,
2018-09-05, 00:54:06,VALID,919.37,VALID,0.0,VALID,96.237,VALID,-0.027,VALID,17.983,INVALID,360.0,VALID,0.0,
2018-09-05, 00:55:06,VALID,919.33,VALID,0.0,VALID,96.039,VALID,-0.034,VALID,17.909,INVALID,360.0,VALID,0.0,
2018-09-05, 00:56:06,VALID,919.307,VALID,0.0,VALID,95.837,VALID,-0.025,VALID,17.83,INVALID,360.0,VALID,0.0,
2018-09-05, 00:57:06,VALID,919.298,VALID,0.0,VALID,95.749,VALID,-0.004,VALID,17.804,INVALID,360.0,VALID,0.0,
2018-09-05, 00:58:06,VALID,919.317,VALID,0.0,VALID,96.959,VALID,-0.026,VALID,17.918,INVALID,360.0,VALID,0.0,
2018-09-05, 00:59:06,VALID,919.318,VALID,0.0,VALID,97.451,VALID,-0.018,VALID,17.978,INVALID,360.0,VALID,0.0,
2018-09-05, 01:00:06,VALID,919.315,VALID,0.0,VALID,97.3,VALID,-0.029,VALID,17.932,INVALID,360.0,VALID,0.0,
2018-09-05, 01:01:06,VALID,919.318,VALID,0.0,VALID,97.192,VALID,-0.021,VALID,17.891,INVALID,360.0,VALID,0.0,
2018-09-05, 01:02:06,VALID,919.298,VALID,0.0,VALID,96.84,VALID,-0.004,VALID,17.813,INVALID,360.0,VALID,0.0,
2018-09-05, 01:03:06,VALID,919.289,VALID,0.0,VALID,96.466,VALID,-0.009,VALID,17.764,INVALID,360.0,VALID,0.0,
2018-09-05, 01:04:06,VALID,919.291,VALID,0.0,VALID,97.287,VALID,-0.023,VALID,17.861,INVALID,360.0,VALID,0.0,
2018-09-05, 01:05:06,VALID,919.297,VALID,0.0,VALID,96.688,VALID,-0.009,VALID,17.738,INVALID,360.0,VALID,0.0,
2018-09-05, 01:06:06,VALID,919.305,VALID,0.0,VALID,96.854,VALID,-0.025,VALID,17.733,INVALID,360.0,VALID,0.0,
2018-09-05, 01:07:06,VALID,919.296,VALID,0.0,VALID,96.835,VALID,-0.003,VALID,17.711,INVALID,360.0,VALID,0.0,
2018-09-05, 01:08:06,VALID,919.303,VALID,0.0,VALID,97.002,VALID,0.004,VALID,17.747,INVALID,360.0,VALID,0.0,
2018-09-05, 01:09:06,VALID,919.293,VALID,0.0,VALID,97.616,VALID,0.002,VALID,17.869,INVALID,360.0,VALID,0.0,
2018-09-05, 01:10:06,VALID,919.287,VALID,0.0,VALID,97.909,VALID,0.017,VALID,17.964,INVALID,360.0,VALID,0.0,
2018-09-05, 01:11:06,VALID,919.262,VALID,0.0,VALID,97.676,VALID,0.01,VALID,17.909,INVALID,360.0,VALID,0.0,
2018-09-05, 01:12:06,VALID,919.247,VALID,0.0,VALID,97.081,VALID,-0.0,VALID,17.79,INVALID,360.0,VALID,0.0,
2018-09-05, 01:13:06,VALID,919.235,VALID,0.0,VALID,96.881,VALID,-0.004,VALID,17.768,INVALID,360.0,VALID,0.0,
2018-09-05, 01:14:06,VALID,919.242,VALID,0.0,VALID,97.393,VALID,0.003,VALID,17.871,INVALID,360.0,VALID,0.0,
2018-09-05, 01:15:06,VALID,919.221,VALID,0.0,VALID,97.719,VALID,0.011,VALID,17.94,INVALID,360.0,VALID,0.0,
2018-09-05, 01:16:06,VALID,919.19,VALID,0.0,VALID,97.728,VALID,0.023,VALID,17.918,INVALID,360.0,VALID,0.0,
2018-09-05, 01:17:06,VALID,919.181,VALID,0.0,VALID,97.335,VALID,0.019,VALID,17.799,INVALID,360.0,VALID,0.0,
2018-09-05, 01:18:06,VALID,919.165,VALID,0.0,VALID,97.109,VALID,-0.01,VALID,17.748,INVALID,360.0,VALID,0.0,
2018-09-05, 01:19:06,VALID,919.173,VALID,0.0,VALID,97.442,VALID,0.011,VALID,17.82,INVALID,360.0,VALID,0.0,
2018-09-05, 01:20:06,VALID,919.179,VALID,0.0,VALID,97.811,VALID,-0.014,VALID,17.895,INVALID,360.0,VALID,0.0,
2018-09-05, 01:21:06,VALID,919.187,VALID,0.0,VALID,97.965,VALID,0.009,VALID,17.926,INVALID,360.0,VALID,0.0,
2018-09-05, 01:22:06,VALID,919.188,VALID,0.0,VALID,97.86,VALID,-0.002,VALID,17.886,INVALID,360.0,VALID,0.0,
2018-09-05, 01:23:06,VALID,919.165,VALID,0.0,VALID,97.307,VALID,0.008,VALID,17.75,INVALID,360.0,VALID,0.0,
2018-09-05, 01:24:06,VALID,919.177,VALID,0.0,VALID,97.074,VALID,0.017,VALID,17.696,INVALID,360.0,VALID,0.0,
2018-09-05, 01:25:06,VALID,919.151,VALID,0.0,VALID,97.81,VALID,0.008,VALID,17.844,INVALID,360.0,VALID,0.0,
2018-09-05, 01:26:06,VALID,919.108,VALID,0.0,VALID,98.228,VALID,0.021,VALID,17.999,INVALID,360.0,VALID,0.0,
2018-09-05, 01:27:06,VALID,919.087,VALID,0.0,VALID,98.383,VALID,0.025,VALID,18.12,INVALID,360.0,VALID,0.0,
2018-09-05, 01:28:06,VALID,919.079,VALID,0.0,VALID,98.347,VALID,0.014,VALID,18.173,INVALID,360.0,VALID,0.0,
2018-09-05, 01:29:06,VALID,919.064,VALID,0.0,VALID,98.248,VALID,0.02,VALID,18.191,INVALID,360.0,VALID,0.0,
2018-09-05, 01:30:06,VALID,919.043,VALID,0.0,VALID,98.104,VALID,0.01,VALID,18.17,INVALID,360.0,VALID,0.0,
2018-09-05, 01:31:06,VALID,919.019,VALID,0.0,VALID,98.001,VALID,0.014,VALID,18.155,INVALID,360.0,VALID,0.0,
2018-09-05, 01:32:06,VALID,919.02,VALID,0.0,VALID,97.812,VALID,0.017,VALID,18.117,INVALID,360.0,VALID,0.0,
2018-09-05, 01:33:06,VALID,918.995,VALID,0.0,VALID,97.088,VALID,0.019,VALID,17.964,INVALID,360.0,VALID,0.0,
2018-09-05, 01:34:06,VALID,918.998,VALID,0.0,VALID,96.077,VALID,0.012,VALID,17.814,INVALID,360.0,VALID,0.0,
2018-09-05, 01:35:06,VALID,918.99,VALID,0.0,VALID,96.052,VALID,0.027,VALID,17.837,INVALID,360.0,VALID,0.0,
2018-09-05, 01:36:06,VALID,918.978,VALID,0.0,VALID,97.155,VALID,0.004,VALID,17.989,INVALID,360.0,VALID,0.0,
2018-09-05, 01:37:06,VALID,918.971,VALID,0.0,VALID,97.216,VALID,-0.007,VALID,17.961,INVALID,360.0,VALID,0.0,
2018-09-05, 01:38:06,VALID,918.963,VALID,0.0,VALID,96.529,VALID,-0.011,VALID,17.797,INVALID,360.0,VALID,0.0,
2018-09-05, 01:39:06,VALID,918.973,VALID,0.0,VALID,96.6,VALID,0.001,VALID,17.793,INVALID,360.0,VALID,0.0,
2018-09-05, 01:40:06,VALID,918.962,VALID,0.0,VALID,97.717,VALID,0.004,VALID,18.087,INVALID,360.0,VALID,0.0,
2018-09-05, 01:41:06,VALID,918.93,VALID,0.0,VALID,98.265,VALID,-0.012,VALID,18.28,INVALID,360.0,VALID,0.0,
2018-09-05, 01:42:06,VALID,918.905,VALID,0.0,VALID,98.198,VALID,-0.025,VALID,18.284,INVALID,360.0,VALID,0.0,
2018-09-05, 01:43:06,VALID,918.903,VALID,0.0,VALID,98.03,VALID,-0.021,VALID,18.219,INVALID,360.0,VALID,0.0,
2018-09-05, 01:44:06,VALID,918.903,VALID,0.0,VALID,97.225,VALID,-0.012,VALID,18.047,INVALID,360.0,VALID,0.0,
2018-09-05, 01:45:06,VALID,918.892,VALID,0.0,VALID,97.325,VALID,-0.023,VALID,18.12,INVALID,360.0,VALID,0.0,
2018-09-05, 01:46:06,VALID,918.943,VALID,0.0,VALID,97.51,VALID,-0.016,VALID,18.268,INVALID,360.0,VALID,0.0,
2018-09-05, 01:47:06,VALID,918.93,VALID,0.0,VALID,97.268,VALID,-0.016,VALID,18.329,INVALID,360.0,VALID,0.0,
2018-09-05, 01:48:06,VALID,918.898,VALID,0.0,VALID,97.171,VALID,-0.013,VALID,18.402,INVALID,360.0,VALID,0.0,
2018-09-05, 01:49:06,VALID,918.893,VALID,0.0,VALID,96.784,VALID,-0.023,VALID,18.39,INVALID,360.0,VALID,0.0,
2018-09-05, 01:50:06,VALID,918.878,VALID,0.0,VALID,95.872,VALID,-0.022,VALID,18.298,INVALID,360.0,VALID,0.0,
2018-09-05, 01:51:06,VALID,918.84,VALID,0.0,VALID,96.575,VALID,-0.034,VALID,18.439,INVALID,360.0,VALID,0.0,
2018-09-05, 01:52:06,VALID,918.849,VALID,0.0,VALID,96.66,VALID,-0.004,VALID,18.53,INVALID,360.0,VALID,0.0,
2018-09-05, 01:53:06,VALID,918.843,VALID,0.0,VALID,96.282,VALID,0.017,VALID,18.547,INVALID,360.0,VALID,0.0,
2018-09-05, 01:54:06,VALID,918.843,VALID,0.0,VALID,95.772,VALID,-0.001,VALID,18.498,INVALID,360.0,VALID,0.0,
2018-09-05, 01:55:06,VALID,918.832,VALID,0.0,VALID,95.759,VALID,0.0,VALID,18.45,INVALID,360.0,VALID,0.0,
2018-09-05, 01:56:06,VALID,918.814,VALID,0.0,VALID,95.803,VALID,0.004,VALID,18.382,INVALID,360.0,VALID,0.0,
2018-09-05, 01:57:06,VALID,918.791,VALID,0.0,VALID,95.994,VALID,0.003,VALID,18.325,INVALID,360.0,VALID,0.0,
2018-09-05, 01:58:06,VALID,918.793,VALID,0.0,VALID,96.505,VALID,0.008,VALID,18.348,INVALID,360.0,VALID,0.0,
2018-09-05, 01:59:06,VALID,918.785,VALID,0.0,VALID,97.033,VALID,0.003,VALID,18.487,INVALID,360.0,VALID,0.0,
2018-09-05, 02:00:06,VALID,918.792,VALID,0.0,VALID,96.416,VALID,-0.002,VALID,18.504,INVALID,360.0,VALID,0.0,
2018-09-05, 02:01:06,VALID,918.787,VALID,0.0,VALID,95.979,VALID,-0.001,VALID,18.489,INVALID,360.0,VALID,0.0,
2018-09-05, 02:02:06,VALID,918.786,VALID,0.0,VALID,95.759,VALID,0.006,VALID,18.461,INVALID,360.0,VALID,0.0,
2018-09-05, 02:03:06,VALID,918.779,VALID,0.0,VALID,95.868,VALID,0.01,VALID,18.46,INVALID,360.0,VALID,0.0,
2018-09-05, 02:04:06,VALID,918.774,VALID,0.0,VALID,95.767,VALID,-0.018,VALID,18.453,INVALID,360.0,VALID,0.0,
2018-09-05, 02:05:06,VALID,918.76,VALID,0.0,VALID,95.755,VALID,-0.003,VALID,18.435,INVALID,360.0,VALID,0.0,
2018-09-05, 02:06:06,VALID,918.755,VALID,0.0,VALID,95.075,VALID,-0.009,VALID,18.356,INVALID,360.0,VALID,0.0,
2018-09-05, 02:07:06,VALID,918.72,VALID,0.0,VALID,95.699,VALID,0.04,VALID,18.363,INVALID,360.0,VALID,0.0,
2018-09-05, 02:08:06,VALID,918.716,VALID,0.0,VALID,94.984,VALID,0.037,VALID,18.24,INVALID,360.0,VALID,0.0,
2018-09-05, 02:09:06,VALID,918.701,VALID,0.0,VALID,96.012,VALID,0.045,VALID,18.246,INVALID,360.0,VALID,0.0,
2018-09-05, 02:10:06,VALID,918.69,VALID,0.0,VALID,96.685,VALID,0.028,VALID,18.328,INVALID,360.0,VALID,0.0,
2018-09-05, 02:11:06,VALID,918.706,VALID,0.0,VALID,97.088,VALID,0.039,VALID,18.404,INVALID,360.0,VALID,0.0,
2018-09-05, 02:12:06,VALID,918.718,VALID,0.0,VALID,97.23,VALID,0.002,VALID,18.447,INVALID,360.0,VALID,0.0,
2018-09-05, 02:13:06,VALID,918.72,VALID,0.0,VALID,97.246,VALID,0.024,VALID,18.469,INVALID,360.0,VALID,0.0,
2018-09-05, 02:14:06,VALID,918.694,VALID,0.0,VALID,96.682,VALID,0.029,VALID,18.362,INVALID,360.0,VALID,0.0,
2018-09-05, 02:15:06,VALID,918.662,VALID,0.0,VALID,94.418,VALID,0.026,VALID,18.1,INVALID,360.0,VALID,0.0,
2018-09-05, 02:16:06,VALID,918.666,VALID,0.0,VALID,94.827,VALID,0.022,VALID,18.069,INVALID,360.0,VALID,0.0,
2018-09-05, 02:17:06,VALID,918.634,VALID,0.0,VALID,95.743,VALID,0.032,VALID,18.11,INVALID,360.0,VALID,0.0,
2018-09-05, 02:18:06,VALID,918.636,VALID,0.0,VALID,96.896,VALID,0.046,VALID,18.268,INVALID,360.0,VALID,0.0,
2018-09-05, 02:19:06,VALID,918.631,VALID,0.0,VALID,97.035,VALID,0.037,VALID,18.32,INVALID,360.0,VALID,0.0,
2018-09-05, 02:20:06,VALID,918.635,VALID,0.0,VALID,96.864,VALID,0.044,VALID,18.309,INVALID,360.0,VALID,0.0,
2018-09-05, 02:21:06,VALID,918.613,VALID,0.0,VALID,96.73,VALID,0.022,VALID,18.303,INVALID,360.0,VALID,0.0,
2018-09-05, 02:22:06,VALID,918.594,VALID,0.0,VALID,96.33,VALID,0.012,VALID,18.252,INVALID,360.0,VALID,0.0,
2018-09-05, 02:23:06,VALID,918.549,VALID,0.0,VALID,96.46,VALID,0.013,VALID,18.243,INVALID,360.0,VALID,0.0,
2018-09-05, 02:24:06,VALID,918.507,VALID,0.0,VALID,97.298,VALID,0.041,VALID,18.393,INVALID,360.0,VALID,0.0,
2018-09-05, 02:25:06,VALID,918.507,VALID,0.0,VALID,96.844,VALID,0.051,VALID,18.408,INVALID,360.0,VALID,0.0,
2018-09-05, 02:26:06,VALID,918.488,VALID,0.0,VALID,96.461,VALID,0.032,VALID,18.409,INVALID,360.0,VALID,0.0,
2018-09-05, 02:27:06,VALID,918.472,VALID,0.0,VALID,96.76,VALID,0.014,VALID,18.504,INVALID,360.0,VALID,0.0,
2018-09-05, 02:28:06,VALID,918.448,VALID,0.0,VALID,96.732,VALID,0.006,VALID,18.594,INVALID,360.0,VALID,0.0,
2018-09-05, 02:29:06,VALID,918.428,VALID,0.0,VALID,96.273,VALID,0.023,VALID,18.629,INVALID,360.0,VALID,0.0,
2018-09-05, 02:30:06,VALID,918.402,VALID,0.0,VALID,96.114,VALID,0.046,VALID,18.68,INVALID,360.0,VALID,0.0,
2018-09-05, 02:31:06,VALID,918.373,VALID,0.0,VALID,95.466,VALID,0.017,VALID,18.684,INVALID,360.0,VALID,0.0,
2018-09-05, 02:32:06,VALID,918.347,VALID,0.0,VALID,95.693,VALID,0.018,VALID,18.732,INVALID,360.0,VALID,0.0,
2018-09-05, 02:33:06,VALID,918.299,VALID,0.0,VALID,95.491,VALID,0.02,VALID,18.773,INVALID,360.0,VALID,0.0,
2018-09-05, 02:34:06,VALID,918.271,VALID,0.0,VALID,95.16,VALID,0.019,VALID,18.749,INVALID,360.0,VALID,0.0,
2018-09-05, 02:35:06,VALID,918.232,VALID,0.0,VALID,95.53,VALID,0.024,VALID,18.792,INVALID,360.0,VALID,0.0,
2018-09-05, 02:36:06,VALID,918.226,VALID,0.0,VALID,95.207,VALID,0.021,VALID,18.793,INVALID,360.0,VALID,0.0,
2018-09-05, 02:37:06,VALID,918.209,VALID,0.0,VALID,95.346,VALID,-0.007,VALID,18.817,INVALID,360.0,VALID,0.0,
2018-09-05, 02:38:06,VALID,918.195,VALID,0.0,VALID,95.344,VALID,0.001,VALID,18.844,INVALID,360.0,VALID,0.0,
2018-09-05, 02:39:06,VALID,918.198,VALID,0.0,VALID,95.155,VALID,0.012,VALID,18.857,INVALID,360.0,VALID,0.0,
2018-09-05, 02:40:06,VALID,918.198,VALID,0.0,VALID,94.954,VALID,-0.009,VALID,18.854,INVALID,360.0,VALID,0.0,
2018-09-05, 02:41:06,VALID,918.194,VALID,0.0,VALID,94.793,VALID,-0.004,VALID,18.845,INVALID,360.0,VALID,0.0,
2018-09-05, 02:42:06,VALID,918.172,VALID,0.0,VALID,94.869,VALID,-0.002,VALID,18.852,INVALID,360.0,VALID,0.0,
2018-09-05, 02:43:06,VALID,918.164,VALID,0.0,VALID,94.848,VALID,0.007,VALID,18.835,INVALID,360.0,VALID,0.0,
2018-09-05, 02:44:06,VALID,918.156,VALID,0.0,VALID,94.61,VALID,-0.007,VALID,18.774,INVALID,360.0,VALID,0.0,
2018-09-05, 02:45:06,VALID,918.147,VALID,0.0,VALID,94.68,VALID,-0.004,VALID,18.67,INVALID,360.0,VALID,0.0,
2018-09-05, 02:46:06,VALID,918.134,VALID,0.0,VALID,94.901,VALID,0.005,VALID,18.585,INVALID,360.0,VALID,0.0,
2018-09-05, 02:47:06,VALID,918.134,VALID,0.0,VALID,95.411,VALID,-0.003,VALID,18.53,INVALID,360.0,VALID,0.0,
2018-09-05, 02:48:06,VALID,918.136,VALID,0.0,VALID,95.541,VALID,-0.014,VALID,18.472,INVALID,360.0,VALID,0.0,
2018-09-05, 02:49:06,VALID,918.138,VALID,0.0,VALID,95.88,VALID,0.007,VALID,18.437,INVALID,360.0,VALID,0.0,
2018-09-05, 02:50:06,VALID,918.132,VALID,0.0,VALID,95.833,VALID,0.008,VALID,18.394,INVALID,360.0,VALID,0.0,
2018-09-05, 02:51:06,VALID,918.138,VALID,0.0,VALID,95.995,VALID,-0.0,VALID,18.378,INVALID,360.0,VALID,0.0,
2018-09-05, 02:52:06,VALID,918.132,VALID,0.0,VALID,96.543,VALID,0.001,VALID,18.45,INVALID,360.0,VALID,0.0,
2018-09-05, 02:53:06,VALID,918.126,VALID,0.0,VALID,96.516,VALID,0.002,VALID,18.514,INVALID,360.0,VALID,0.0,
2018-09-05, 02:54:06,VALID,918.103,VALID,0.0,VALID,96.1,VALID,0.012,VALID,18.531,INVALID,360.0,VALID,0.0,
2018-09-05, 02:55:06,VALID,918.077,VALID,0.0,VALID,95.952,VALID,-0.009,VALID,18.563,INVALID,360.0,VALID,0.0,
2018-09-05, 02:56:06,VALID,918.078,VALID,0.0,VALID,95.552,VALID,-0.01,VALID,18.539,INVALID,360.0,VALID,0.0,
2018-09-05, 02:57:06,VALID,918.082,VALID,0.0,VALID,95.582,VALID,-0.005,VALID,18.519,INVALID,360.0,VALID,0.0,
2018-09-05, 02:58:06,VALID,918.086,VALID,0.0,VALID,95.856,VALID,0.014,VALID,18.518,INVALID,360.0,VALID,0.0,
2018-09-05, 02:59:06,VALID,918.076,VALID,0.0,VALID,95.418,VALID,-0.01,VALID,18.442,INVALID,360.0,VALID,0.0,
2018-09-05, 03:00:06,VALID,918.094,VALID,0.0,VALID,95.675,VALID,-0.014,VALID,18.398,INVALID,360.0,VALID,0.0,
2018-09-05, 03:01:06,VALID,918.105,VALID,0.0,VALID,95.322,VALID,0.002,VALID,18.323,INVALID,360.0,VALID,0.0,
2018-09-05, 03:02:06,VALID,918.111,VALID,0.0,VALID,95.614,VALID,0.013,VALID,18.281,INVALID,360.0,VALID,0.0,
2018-09-05, 03:03:06,VALID,918.115,VALID,0.0,VALID,95.613,VALID,0.019,VALID,18.22,INVALID,360.0,VALID,0.0,
2018-09-05, 03:04:06,VALID,918.106,VALID,0.0,VALID,95.449,VALID,0.007,VALID,18.134,INVALID,360.0,VALID,0.0,
2018-09-05, 03:05:06,VALID,918.123,VALID,0.0,VALID,95.829,VALID,0.007,VALID,18.089,INVALID,360.0,VALID,0.0,
2018-09-05, 03:06:06,VALID,918.124,VALID,0.0,VALID,96.032,VALID,0.028,VALID,18.072,INVALID,360.0,VALID,0.0,
2018-09-05, 03:07:06,VALID,918.117,VALID,0.0,VALID,96.334,VALID,-0.001,VALID,18.101,INVALID,360.0,VALID,0.0,
2018-09-05, 03:08:06,VALID,918.082,VALID,0.0,VALID,96.829,VALID,-0.017,VALID,18.164,INVALID,360.0,VALID,0.0,
2018-09-05, 03:09:06,VALID,918.078,VALID,0.0,VALID,96.665,VALID,-0.009,VALID,18.141,INVALID,360.0,VALID,0.0,
2018-09-05, 03:10:06,VALID,918.048,VALID,0.0,VALID,96.335,VALID,-0.002,VALID,18.112,INVALID,360.0,VALID,0.0,
2018-09-05, 03:11:06,VALID,918.023,VALID,0.0,VALID,96.044,VALID,-0.007,VALID,18.072,INVALID,360.0,VALID,0.0,
2018-09-05, 03:12:06,VALID,918.014,VALID,0.0,VALID,94.413,VALID,-0.016,VALID,17.877,INVALID,360.0,VALID,0.0,
2018-09-05, 03:13:06,VALID,918.013,VALID,0.0,VALID,93.929,VALID,-0.012,VALID,17.703,INVALID,360.0,VALID,0.0,
2018-09-05, 03:14:06,VALID,918.006,VALID,0.0,VALID,94.938,VALID,-0.0,VALID,17.666,INVALID,360.0,VALID,0.0,
2018-09-05, 03:15:06,VALID,917.996,VALID,0.0,VALID,97.05,VALID,-0.008,VALID,17.826,INVALID,360.0,VALID,0.0,
2018-09-05, 03:16:06,VALID,917.985,VALID,0.0,VALID,96.497,VALID,-0.019,VALID,17.639,INVALID,360.0,VALID,0.0,
2018-09-05, 03:17:06,VALID,917.983,VALID,0.0,VALID,96.309,VALID,-0.001,VALID,17.545,INVALID,360.0,VALID,0.0,
2018-09-05, 03:18:06,VALID,917.975,VALID,0.0,VALID,96.823,VALID,-0.002,VALID,17.559,INVALID,360.0,VALID,0.0,
2018-09-05, 03:19:06,VALID,917.971,VALID,0.0,VALID,97.141,VALID,-0.003,VALID,17.549,INVALID,360.0,VALID,0.0,
2018-09-05, 03:20:06,VALID,917.96,VALID,0.0,VALID,97.229,VALID,-0.01,VALID,17.505,INVALID,360.0,VALID,0.0,
2018-09-05, 03:21:06,VALID,917.982,VALID,0.0,VALID,97.155,VALID,-0.022,VALID,17.449,INVALID,360.0,VALID,0.0,
2018-09-05, 03:22:06,VALID,917.994,VALID,0.0,VALID,97.152,VALID,-0.011,VALID,17.413,INVALID,360.0,VALID,0.0,
2018-09-05, 03:23:06,VALID,918.009,VALID,0.0,VALID,97.138,VALID,0.008,VALID,17.373,INVALID,360.0,VALID,0.0,
2018-09-05, 03:24:06,VALID,917.996,VALID,0.0,VALID,97.359,VALID,0.012,VALID,17.351,INVALID,360.0,VALID,0.0,
2018-09-05, 03:25:06,VALID,917.976,VALID,0.0,VALID,97.805,VALID,-0.015,VALID,17.425,INVALID,360.0,VALID,0.0,
2018-09-05, 03:26:06,VALID,917.988,VALID,0.0,VALID,97.864,VALID,-0.011,VALID,17.363,INVALID,360.0,VALID,0.0,
2018-09-05, 03:27:06,VALID,917.99,VALID,0.0,VALID,97.72,VALID,-0.011,VALID,17.262,VALID,48.0,VALID,0.0,
2018-09-05, 03:28:06,VALID,918.011,VALID,0.0,VALID,97.94,VALID,-0.001,VALID,17.31,VALID,48.0,VALID,0.0,
2018-09-05, 03:29:06,VALID,918.008,VALID,0.0,VALID,98.045,VALID,0.008,VALID,17.326,VALID,48.0,VALID,0.0,
2018-09-05, 03:30:06,VALID,918.025,VALID,0.0,VALID,98.155,VALID,0.005,VALID,17.351,INVALID,360.0,VALID,0.0,
2018-09-05, 03:31:06,VALID,918.036,VALID,0.0,VALID,98.301,VALID,0.007,VALID,17.399,INVALID,360.0,VALID,0.0,
2018-09-05, 03:32:06,VALID,918.031,VALID,0.0,VALID,98.231,VALID,0.031,VALID,17.356,INVALID,360.0,VALID,0.0,
2018-09-05, 03:33:06,VALID,918.017,VALID,0.0,VALID,98.301,VALID,0.01,VALID,17.385,INVALID,360.0,VALID,0.0,
2018-09-05, 03:34:06,VALID,918.021,VALID,0.0,VALID,98.581,VALID,-0.004,VALID,17.541,INVALID,360.0,VALID,0.0,
2018-09-05, 03:35:06,VALID,918.018,VALID,0.0,VALID,98.489,VALID,0.01,VALID,17.524,INVALID,360.0,VALID,0.0,
2018-09-05, 03:36:06,VALID,918.016,VALID,0.0,VALID,98.442,VALID,-0.007,VALID,17.481,INVALID,360.0,VALID,0.0,
2018-09-05, 03:37:06,VALID,918.008,VALID,0.0,VALID,98.439,VALID,0.005,VALID,17.476,INVALID,360.0,VALID,0.0,
2018-09-05, 03:38:06,VALID,918.002,VALID,0.0,VALID,98.394,VALID,0.007,VALID,17.456,INVALID,360.0,VALID,0.0,